SCP
0 0 0 0 0 0 0 0 0 0 0 0 0 0 0 0 0 0 0 0 0 0
0 0 0 0 0 0 0 0 0 0 0 0 0 0 0 0 0 0 0 0 0 0
0 0 0 0 0 0 0 0 0 0 0 0 0 0 0 0 0 0 0 0 0 0
0 0 0 0 0 0 0 0 0 0 0 0 0 0 0 0 0 0 0 0 0 0
0 0 0 0 0 0 0 0 0 0 0 -0 -0 0 0 0 -0 -0 -0 0 0 0
0 0 0 0 0 0 0 0 0 0 0 -0 -0 0 -0 -0 -0 -0 -0 -0 0 0
0 0 0 0 0 0 -0 0 0 0 0 0 0 0 0 -0 -0 -0 -0 -0 0 0
0 0 0 0 0 0 -0 0 0 0 0 0 0 0 0 0 -0 -0 -0 -0 -0 -0
0 0 0 0 0 0 0 0 0 0 0 0 0 0 0 0 0 0 -0 -0 -0 -0
0 0 0 0 0 0 0 0 0 0 0 0 0 0 0 0 0 0 0 -0 -0 0
0 0 0 0 0 0 0 0 0 0 0 0 0 0 0 0 0 0 0 -0 0 0
0 0 0 0 0 0 0 0 0 0 0 0 0 0 0 0 0 0 0 -0 0 0
0 0 0 0 0 0 0 0 0 0 0 0 0 0 0 0 0 0 0 0 0 -0
0 0 0 -0 0 0 0 0 0 0 0 0 0 0 -0 0 0 0 0 -0 0 0
Wind_Speed_500mb
33 40 50 58 59 55 52 45 43 42 39 41 39 39 37 33 30 28 26 25 25 32
47 54 61 65 54 45 40 42 42 37 36 32 30 28 29 30 30 28 27 28 28 32
51 59 58 46 35 27 35 43 34 24 24 23 26 32 35 36 32 31 28 31 31 28
54 48 35 27 20 27 32 34 32 21 28 33 32 35 42 34 31 29 26 30 25 23
42 36 26 24 27 26 30 32 30 22 29 29 28 31 34 36 36 32 26 26 18 17
31 31 31 29 27 26 30 30 27 25 26 28 30 25 28 39 38 29 15 25 22 23
31 34 34 30 29 30 29 26 25 23 22 24 29 25 24 29 37 33 27 22 23 26
31 35 36 31 31 31 29 26 23 21 21 21 28 26 20 20 25 24 25 27 27 28
36 37 40 32 30 27 27 25 23 20 20 21 25 19 19 12 15 17 17 21 23 25
36 34 39 28 28 28 29 23 17 23 20 24 25 20 18 18 10 8 13 22 31 32
34 35 33 26 27 29 27 23 18 25 24 23 23 22 23 15 1 10 8 25 34 40
34 32 29 23 21 22 26 22 20 18 17 18 19 23 22 17 8 3 4 24 39 37
28 34 24 23 26 25 20 21 18 13 12 15 17 17 16 15 13 1 16 27 32 27
24 23 23 26 32 25 13 14 13 17 18 9 8 14 15 12 10 12 16 18 24 23
Wind_Direction_500mb
302 310 321 329 333 329 320 319 321 320 326 333 330 322 325 328 329 325 319 310 316 325
307 318 326 328 321 321 330 331 323 321 330 333 336 351 351 345 338 334 338 325 313 314
318 320 321 318 320 340 358 358 353 359 5 21 7 346 344 337 334 331 335 333 319 308
324 326 328 336 345 342 348 352 357 7 354 351 342 340 346 349 351 344 333 327 322 315
334 338 345 352 349 347 354 358 354 6 353 4 355 354 3 13 360 347 352 353 4 356
27 18 2 355 354 352 349 350 352 355 353 358 358 3 15 21 10 11 5 14 20 9
10 9 2 358 357 353 353 353 355 350 347 357 0 2 8 23 21 26 32 32 27 32
11 11 9 6 5 3 4 1 351 350 343 351 356 358 16 31 29 22 27 31 30 22
18 13 4 355 359 358 357 359 2 357 356 352 349 353 1 338 17 13 3 8 2 358
12 9 5 11 9 7 4 3 7 4 6 5 3 359 351 329 321 345 354 3 354 347
6 5 9 12 10 8 9 13 20 14 13 356 2 3 357 4 329 342 331 351 352 341
2 3 3 8 9 14 22 20 22 33 5 10 12 12 11 16 352 7 333 347 348 346
352 359 5 4 3 7 13 12 4 355 353 345 344 6 11 16 15 9 347 345 354 13
350 351 353 354 359 353 324 318 348 341 326 325 313 327 345 360 14 7 341 349 13 37
Wind_Speed_850mb
33 40 50 58 59 55 52 45 43 42 39 41 39 39 37 33 30 28 26 25 25 32
47 54 61 65 54 45 40 42 42 37 36 32 30 28 29 30 30 28 27 28 28 32
51 59 58 46 35 27 35 43 34 24 24 23 26 32 35 36 32 31 28 31 31 28
54 48 35 27 20 27 32 34 32 21 28 33 32 35 42 34 31 29 26 30 25 23
42 36 26 24 27 26 30 32 30 22 29 29 28 31 34 36 36 32 26 26 18 17
31 31 31 29 27 26 30 30 27 25 26 28 30 25 28 39 38 29 15 25 22 23
31 34 34 30 29 30 29 26 25 23 22 24 29 25 24 29 37 33 27 22 23 26
31 35 36 31 31 31 29 26 23 21 21 21 28 26 20 20 25 24 25 27 27 28
36 37 40 32 30 27 27 25 23 20 20 21 25 19 19 12 15 17 17 21 23 25
36 34 39 28 28 28 29 23 17 23 20 24 25 20 18 18 10 8 13 22 31 32
34 35 33 26 27 29 27 23 18 25 24 23 23 22 23 15 1 10 8 25 34 40
34 32 29 23 21 22 26 22 20 18 17 18 19 23 22 17 8 3 4 24 39 37
28 34 24 23 26 25 20 21 18 13 12 15 17 17 16 15 13 1 16 27 32 27
24 23 23 26 32 25 13 14 13 17 18 9 8 14 15 12 10 12 16 18 24 23
Wind_Direction_850mb
302 310 321 329 333 329 320 319 321 320 326 333 330 322 325 328 329 325 319 310 316 325
307 318 326 328 321 321 330 331 323 321 330 333 336 351 351 345 338 334 338 325 313 314
318 320 321 318 320 340 358 358 353 359 5 21 7 346 344 337 334 331 335 333 319 308
324 326 328 336 345 342 348 352 357 7 354 351 342 340 346 349 351 344 333 327 322 315
334 338 345 352 349 347 354 358 354 6 353 4 355 354 3 13 360 347 352 353 4 356
27 18 2 355 354 352 349 350 352 355 353 358 358 3 15 21 10 11 5 14 20 9
10 9 2 358 357 353 353 353 355 350 347 357 0 2 8 23 21 26 32 32 27 32
11 11 9 6 5 3 4 1 351 350 343 351 356 358 16 31 29 22 27 31 30 22
18 13 4 355 359 358 357 359 2 357 356 352 349 353 1 338 17 13 3 8 2 358
12 9 5 11 9 7 4 3 7 4 6 5 3 359 351 329 321 345 354 3 354 347
6 5 9 12 10 8 9 13 20 14 13 356 2 3 357 4 329 342 331 351 352 341
2 3 3 8 9 14 22 20 22 33 5 10 12 12 11 16 352 7 333 347 348 346
352 359 5 4 3 7 13 12 4 355 353 345 344 6 11 16 15 9 347 345 354 13
350 351 353 354 359 353 324 318 348 341 326 325 313 327 345 360 14 7 341 349 13 37